Location: Caltech
(34.1382°N, 118.1253°W)
Time: 15:46:02
(UTC-07:00)

ERBS - Visible Passes

Search period start: 25 October 2014 00:00
Search period end: 03 November 2014 23:00
Orbit: 460 x 490 km, 57.0° (Epoch: 24 October)

Date Brightness Start Highest point End Pass type
(mag) Time Alt. Az. Time Alt. Az. Time Alt. Az.
25 Oct 5.1 04:44:15 19° ESE 04:44:15 19° ESE 04:45:28 10° ESE visible
25 Oct 4.3 06:18:26 14° WSW 06:19:16 14° WSW 06:21:18 10° SSW visible
25 Oct 4.9 19:54:24 10° SSW 19:55:08 15° S 19:55:08 15° S visible
26 Oct 4.5 05:51:10 16° SW 05:51:10 16° SW 05:52:30 10° SSW visible
26 Oct 3.6 19:25:14 10° S 19:27:46 27° SE 19:27:46 27° SE visible
27 Oct 3.8 18:56:07 10° S 18:59:02 23° ESE 19:00:16 19° E visible
27 Oct 5.5 20:33:25 10° W 20:34:26 16° W 20:34:26 16° W visible
28 Oct 4.1 18:27:04 10° SSE 18:29:38 19° ESE 18:32:12 10° ENE visible
28 Oct 4.2 20:03:44 10° WSW 20:06:47 30° NW 20:06:47 30° NW visible
29 Oct 3.8 19:34:03 10° WSW 19:37:26 37° NW 19:38:58 25° N visible
30 Oct 3.4 19:04:24 10° WSW 19:07:55 47° NW 19:11:00 13° NNE visible
31 Oct 3.0 18:34:47 10° SW 18:38:22 61° NW 18:41:56 10° NNE visible
02 Nov 5.4 18:16:20 10° NW 18:17:09 11° NW 18:17:58 10° NNW visible
03 Nov 5.2 17:45:47 10° WNW 17:47:26 13° NW 17:49:06 10° N visible
